Powrót do katalogu

NOAA 16 DEB

AktywnySSO
NORAD 41284·DEBRIS·🇺🇸 United States

Wystrzelony Sep 21, 2000 z Vandenberg Space Force Base

Loading…

Następne Przeloty (najbliższe 24 godziny)

TLE

ŚwieżeSource: Space-Track

Epoka: Sep 14, 2026, 09:05 UTC

1 41284U 00055GL  26257.37871384  .00001848  00000-0  10773-2 0  9993
2 41284  98.8621 222.3401 0073407 209.9642 149.7316 14.08401776546758

Śledź NOAA 16 DEB w czasie rzeczywistym z AllMySat

Download on the App Store